Regional Weather Roundup
Issued by NWS

Home | Current Version | Previous Version | Graphics & Text | Print | Product List | Glossary On
Versions: 1 2 3 4 5 6 7 8 9 10 11 12 13 14 15 16 17 18 19 20 21 22 23 24 25 26 27 28 29 30 31 32 33 34 35 36 37 38 39 40 41 42 43 44 45 46 47 48 49 50
000
ASUS43 KMKX 102211
RWRWI

WISCONSIN REGIONAL WEATHER ROUNDUP
NATIONAL WEATHER SERVICE MILWAUKEE/SULLIVAN WI
400 PM CST WED FEB 10 2016

NOTE: "FAIR" INDICATES FEW OR NO CLOUDS BELOW 12,000 FEET WITH NO
SIGNIFICANT WEATHER AND/OR OBSTRUCTIONS TO VISIBILITY.

WIZ001-002-006>008-014>016-023>028-102300-
NORTHWEST WISCONSIN

CITY           SKY/WX    TMP DP  RH WIND       PRES   REMARKS
SUPERIOR ARPT  SUNNY     12  -8  41 CALM      30.16R
ASHLAND        SUNNY      9  -2  61 N5        30.14R WCI   1
HAYWARD        SUNNY     11  -4  51 N8        30.09R WCI  -1
SIREN          MOSUNNY   10  -4  55 N5        30.14R WCI   1
CUMBERLAND     MOSUNNY    9  -6  52 N7        30.09R WCI  -3
RICE LAKE      MOSUNNY   10  -2  57 W6        30.11R WCI   0
CHETEK         MOSUNNY   10  -2  58 NW6       30.10R WCI   0
LADYSMITH      SUNNY     12  -2  52 N5        30.08R WCI   4
EAU CLAIRE     CLOUDY    10  -4  53 VRB5      30.10R WCI   2
MENOMONIE      SUNNY     15  -4  41 NW5       30.12R WCI   8
NEW RICHMOND   SUNNY     10  -4  53 N3        30.13R
OSCEOLA        PTSUNNY   11  -3  52 N5        30.16R WCI   3
$$

WIZ003>005-009-010-017-018-102300-
NORTH CENTRAL WISCONSIN

CITY           SKY/WX    TMP DP  RH WIND       PRES   REMARKS
MANITOWISH WTR CLOUDY     7  -2  67 N6        30.01R WCI  -4
ARBOR VITAE    CLOUDY     9  -1  62 N12G17    30.00R WCI  -6
WOODRUFF       CLOUDY     9  -1  62 N12G17    30.00R WCI  -6
RHINELANDER    CLOUDY    10  -4  53 NW12G20   29.99R WCI  -5
EAGLE RIVER    CLOUDY     7  -5  57 N9G16     29.99R WCI  -7
LAND O LAKES   CLOUDY     7  -2  66 N9        30.00R WCI  -7
PHILLIPS       CLOUDY     8  -3  63 N6        30.03R WCI  -2
TOMAHAWK       MOSUNNY   10  -4  52 N8        30.02R WCI  -2
MEDFORD        MOSUNNY   10  -3  54 N8        30.01R WCI  -2
MERRILL        MOSUNNY   12  -4  48 N8G16     30.02R WCI   1
$$

WIZ029-030-035-036-043>047-102300-
CENTRAL WISCONSIN

CITY           SKY/WX    TMP DP  RH WIND       PRES   REMARKS
WAUSAU         SUNNY     14  -4  44 N8        30.01R WCI   3
MOSINEE        SUNNY     12  -2  52 NW8       30.02R WCI   1
MARSHFIELD     SUNNY     11  -4  51 NW13      30.02R WCI  -4
STEVENS POINT  SUNNY     11  -5  48 NW7       30.03R WCI   0
WAUPACA        SUNNY     17  -5  36 W9        30.04R WCI   6
WAUTOMA        SUNNY     13  -4  46 NW10      30.06R WCI   0
WISC RAPIDS    SUNNY     10  -4  53 NW12      30.07R WCI  -5
CAMP DOUGLAS   PTSUNNY   12  -2  52 N8        30.06R WCI   1
$$

WIZ011>013-019>022-031-037>040-048>050-102300-
NORTHEAST WISCONSIN

CITY           SKY/WX    TMP DP  RH WIND       PRES   REMARKS
ANTIGO         SUNNY      9  -4  54 N12       29.98R WCI  -6
SHAWANO        SUNNY     17  -5  36 NW9       30.03R WCI   6
OCONTO         MOSUNNY   15  -5  41 N8        30.03R WCI   4
STURGEON BAY   SUNNY     12  -6  44 N17       30.03R WCI  -5
GREEN BAY      SUNNY     14  -5  42 NW9       30.03R WCI   2
MANITOWOC      SUNNY     14  -3  47 NW10      30.04R WCI   1
APPLETON       MOSUNNY   12  -8  40 W9        30.00R WCI   0
CLINTONVILLE   SUNNY     18  -6  35 NW12      30.03R WCI   5
OSHKOSH        SUNNY     14  -4  44 N13       30.03R WCI   0
$$

WIZ032>034-041-042-053>061-102300-
SOUTHWEST WISCONSIN

CITY           SKY/WX    TMP DP  RH WIND       PRES   REMARKS
LA CROSSE      SUNNY     10  -3  55 NW10      30.11R WCI  -4
SPARTA         SUNNY     14  -1  52 NW6       30.08R WCI   5
VIROQUA        SUNNY     10  -2  59 NW3       30.03R
BOSCOBEL       MOSUNNY   14  -3  47 N8        30.09R WCI   3
PRAIRIE DU CHI MOSUNNY   15  -3  45 NW6       30.09R WCI   7
PLATTEVILLE    MOSUNNY   15   2  57 NW3       30.04R
$$

WIZ056-057-062-063-064-067-068-102300-
SOUTH CENTRAL WISCONSIN

CITY           SKY/WX    TMP DP  RH WIND       PRES   REMARKS
REEDSBURG      SUNNY     13  -2  52 N9        30.05R WCI   1
BARABOO/DELLS  SUNNY     14  -3  47 NW8       30.04R WCI   3
LONE ROCK      NOT AVBL
MINERAL POINT  SUNNY     14  -2  48 NW6       30.02R WCI   5
MADISON        MOSUNNY   14  -2  49 VRB7      30.04R WCI   4
MIDDLETON      SUNNY     16   0  50 NW7       30.04R WCI   6
WATERTOWN      CLOUDY    13   1  59 NW7       30.04R WCI   3
MONROE         SUNNY     16   0  48 NW8       30.02R WCI   5
JANESVILLE     MOSUNNY   16   1  53 NW12G17   30.04R WCI   3
$$

WIZ051-052-058>065-066-070>072-102300-
SOUTHEAST WISCONSIN

CITY           SKY/WX    TMP DP  RH WIND       PRES   REMARKS
MILWAUKEE      PTSUNNY   13  -3  49 NW12      30.04R WCI  -1
WAUKESHA       CLOUDY    10  -2  56 NW12      30.03R WCI  -4
MILWAUKEE/TIMM MOSUNNY   12  -4  48 NW13G18   30.04R WCI  -3
RACINE         PTSUNNY   14  -2  49 NW10      30.05R WCI   1
BURLINGTON     CLOUDY    12  -1  56 NW8       30.04R WCI   1
KENOSHA        CLOUDY    14   1  56 NW10      30.04R WCI   1
FOND DU LAC    SUNNY     13  -2  51 NW7       30.03R WCI   3
SHEBOYGAN      SUNNY     12  -4  48 NW12      30.03R WCI  -2
WEST BEND      MOSUNNY   12  -4  48 CALM      30.03R
JUNEAU         CLOUDY    12  -1  55 NW9       30.04R WCI   0
$$

LSZ147-162-102300-
LAKE SUPERIOR

STATION/POSITION TIME  TEMP    WIND        PRES    WAVE
                       AIR SEA DIR/SP/G            HT/PER
                 (UTC) (F)     (DEG/KT/KT) (MB)    (FT/S)
DEVILS ISLAND    2200    9     280/  7/ 10 1022.7R
SAXON HARBOR     2100   11                 1019.6R
$$

LMZ867-665-643>646-102300-
LAKE MICHIGAN

STATION/POSITION TIME  TEMP    WIND        PRES    WAVE
                       AIR SEA DIR/SP/G            HT/PER
                 (UTC) (F)     (DEG/KT/KT) (MB)    (FT/S)
CHAMBERS ISLAND  2100   15     310/ 16/ 22 1015.9R
ALGOMA LAKESHORE 2141          330/ 11/ 14   N/A
KEWAUNEE LAKESHO 2100   14     320/  8/ 13 1015.2R
SHEBOYGAN LAKESH 2200   12     310/ 13/ 17 1018.7R
PORT WASHINGTON  2100   13     340/  8/ 14 1017.6
MILWAUKEE LAKESH 2110   14     340/  7/ 11   N/A
KENOSHA   LAKESH 2200   14     310/ 10/ 14 1017.3R
$$

TC  - TEMPERATURE IN CELSIUS
VSB - VISIBILITY IN STATUTE MILES
WCI - WIND CHILL INDEX
HX  - HEAT INDEX




USA.gov is the U.S. government's official web portal to all federal, state and local government web resources and services.